Regional Weather Roundup
Issued by NWS Jackson, KY

Home | Current Version | Previous Version | Graphics & Text | Print | Product List | Glossary On
Versions: 1 2 3 4 5 6 7 8 9 10 11 12 13 14 15 16 17 18 19 20 21 22 23 24 25 26 27 28
000
ASUS43 KJKL 311210
RWRJKL

EAST KENTUCKY HOURLY WEATHER ROUNDUP
NATIONAL WEATHER SERVICE JACKSON KY
800 AM EDT TUE MAY 31 2016

NOTE: "FAIR" INDICATES FEW OR NO CLOUDS BELOW 12,000 FEET WITH
NO SIGNIFICANT WEATHER AND/OR OBSTRUCTIONS TO VISIBILITY.

* THESE REPORTS ARE NOT UNDER NWS QUALITY CONTROL AND MAY NOT
  REPORT WEATHER SUCH AS PRECIPITATION AND FOG.

KYZ079-080-083-085-087-088-110-112-115-119-120-311300
...EASTERN KENTUCKY...

CITY           SKY/WX    TMP DP  RH WIND       PRES   REMARKS
JACKSON        CLOUDY    67  61  81 CALM      30.03R
6HR MIN TEMP:  62; 6HR MAX TEMP:  69;

LONDON         CLOUDY    64  60  87 NE3       30.02R
6HR MIN TEMP:  60; 6HR MAX TEMP:  64;

SOMERSET*      PTSUNNY   61  61 100 CALM      30.03S
MONTICELLO*    CLOUDY    64  62  93 VRB7      30.03S
6HR MIN TEMP:  58; 6HR MAX TEMP:  64;

WILLIAMSBURG*  CLOUDY    59  59 100 CALM      30.03S VSB<1/4
MIDDLESBORO*   FOG       61  61 100 CALM      30.04R VSB 1/2
6HR MIN TEMP:  59; 6HR MAX TEMP:  62;

HARLAN APT*    CLOUDY    61  59  94 CALM      30.05R
HAZARD APT*    SUNNY     63  63 100 CALM      30.03R
BLACK MTN*       N/A     64  61  88 NE1         N/A
PIKE CO APT*     N/A     66  65  94 CALM      30.04R
BIG SANDY APT* SUNNY     66  64  93 CALM      30.04R
6HR MIN TEMP:  60; 6HR MAX TEMP:  66;

MOREHEAD APT*  SUNNY     64  63  94 CALM      30.05R
ASHLAND*       CLOUDY    63  63 100 CALM      30.00S VSB 1/4
$$

KYZ035-036-041-042-044-050-067-078-099-311300
...CENTRAL KENTUCKY...

CITY           SKY/WX    TMP DP  RH WIND       PRES   REMARKS
MT STERLING*   MOSUNNY   63  63 100 CALM      30.04S
FLEMING/MASON* CLOUDY    64  62  94 CALM      30.04R
DANVILLE*      MOSUNNY   63  61  94 CALM      30.03R
RICHMOND*      MOSUNNY   63  59  88 CALM      30.02S
LEXINGTON      PTSUNNY   66  61  84 N3        30.03R
6HR MIN TEMP:  60; 6HR MAX TEMP:  67;

FRANKFORT      PTSUNNY   65  60  84 CALM      30.01R
6HR MIN TEMP:  60; 6HR MAX TEMP:  65;

LOUISVILLE     PTSUNNY   72  61  68 CALM      30.00R
6HR MIN TEMP:  67; 6HR MAX TEMP:  72;

LEBANON*         N/A     64  63  94 CALM      30.02R
GLASGOW*       PTSUNNY   67  65  93 CALM      30.00R
BOWLING GREEN  SUNNY     67  63  87 CALM      30.00R
6HR MIN TEMP:  63; 6HR MAX TEMP:  67;

$$

KYZ091>093-OHZ055-061-077-WVZ005-015-034-035-042-311300
...SOUTHERN OHIO/WEST VIRGINIA...

CITY           SKY/WX    TMP DP  RH WIND       PRES   REMARKS
COVINGTON      PTSUNNY   68  61  78 CALM      30.01S
COLUMBUS       CLOUDY    67  61  81 S3        30.01R
DAYTON         PTSUNNY   67  60  78 NW3       30.02R
WILMINGTON     MOSUNNY   71  62  73 CALM      30.01R
HUNTINGTON       N/A     63  61  93 E3        30.01R
CHARLESTON       N/A     62  60  93 CALM      30.03R FOG
PINEVILLE*       N/A     61  58  90 MISG      30.11R
BECKLEY          N/A     64  60  87 CALM      30.08R
BLUEFIELD        N/A     65  60  84 CALM      30.10R
LOGAN CO APT*    N/A     66  64  94 CALM      30.04S
$$

VAZ002-007-008-TNZ017-027-036-066-071-311300
...SOUTHWEST VIRGINIA/EAST TENNESSEE...

CITY           SKY/WX    TMP DP  RH WIND       PRES   REMARKS
WISE*            N/A     68  57  68 CALM      30.10R
JONESVILLE*      N/A     64  61  88 CALM      30.06R
ABINGDON*      PTSUNNY   66  64  91 CALM      30.07R
BRISTOL        FOG       62  61  96 E3        30.04R VSB 1/8
SEVIERVILLE*   SUNNY     63  59  88 CALM      30.00R
OAK RIDGE      CLOUDY    68  64  87 CALM      30.01R
CROSSVILLE     CLOUDY    64  60  87 CALM      30.04R
NASHVILLE      CLOUDY    68  63  84 CALM      29.99R
$$

...KEY TO REMARKS...
VSB - VISIBILITY IN MILES
WCI - WIND CHILL INDEX
HX  - HEAT INDEX

$$




USA.gov is the U.S. government's official web portal to all federal, state and local government web resources and services.